• Em Portugal
  • Lista de países
  • Para 7 dias
  • Temperatura da água
  • Mapas de satélite
  • Mapa do tempo
  • Widgets de tempo
  • user-avatar
    Iniciar Sessão

    Previsão horária em Mogilevo

    Hoje, 15 Outubro, Segunda-feira

    Tempo Temperatura Precipitação Vento Pressão Humidade
    00:00 +10°C° 0 mm 1 m/s 758 mmHg 74%
    01:00 +10°C° 0 mm 1 m/s 758 mmHg 74%
    02:00 +9°C° 0 mm 1 m/s 758 mmHg 74%
    03:00 +9°C° 0 mm 1 m/s 758 mmHg 73%
    04:00 +8°C° 0 mm 1 m/s 758 mmHg 73%
    05:00 +8°C° 0 mm 1 m/s 758 mmHg 73%
    06:00 +9°C° 0 mm 1 m/s 758 mmHg 70%
    07:00 +9°C° 0 mm 1 m/s 758 mmHg 68%
    08:00 +9°C° 0 mm 2 m/s 758 mmHg 63%
    09:00 +12°C° 0 mm 2 m/s 758 mmHg 57%
    10:00 +13°C° 0 mm 2 m/s 758 mmHg 51%
    11:00 +15°C° 0 mm 2 m/s 758 mmHg 45%
    12:00 +16°C° 0 mm 2 m/s 758 mmHg 43%
    13:00 +17°C° 0 mm 2 m/s 758 mmHg 41%
    14:00 +20°C° 0 mm 1 m/s 758 mmHg 40%
    15:00 +18°C° 0 mm 1 m/s 757 mmHg 44%
    16:00 +16°C° 0 mm 2 m/s 757 mmHg 49%
    17:00 +14°C° 0 mm 2 m/s 757 mmHg 54%
    18:00 +13°C° 0 mm 2 m/s 757 mmHg 56%
    19:00 +12°C° 0 mm 2 m/s 757 mmHg 58%
    20:00 +12°C° 0 mm 2 m/s 757 mmHg 60%
    21:00 +10°C° 0 mm 2 m/s 757 mmHg 61%
    22:00 +10°C° 0 mm 2 m/s 757 mmHg 62%
    23:00 +9°C° 0 mm 2 m/s 757 mmHg 62%

    Amanhã, 16 Outubro, Terça-feira

    Tempo Temperatura Precipitação Vento Pressão Humidade
    00:00 +9°C° 0 mm 2 m/s 757 mmHg 63%
    01:00 +9°C° 0 mm 2 m/s 757 mmHg 64%
    02:00 +9°C° 0 mm 2 m/s 757 mmHg 64%
    03:00 +8°C° 0 mm 2 m/s 756 mmHg 65%
    04:00 +8°C° 0 mm 2 m/s 756 mmHg 66%
    05:00 +8°C° 0 mm 2 m/s 756 mmHg 67%
    06:00 +8°C° 0 mm 2 m/s 756 mmHg 66%
    07:00 +9°C° 0 mm 2 m/s 756 mmHg 65%
    08:00 +9°C° 0 mm 2 m/s 756 mmHg 65%
    09:00 +12°C° 0 mm 2 m/s 756 mmHg 60%
    10:00 +14°C° 0 mm 2 m/s 756 mmHg 54%
    11:00 +16°C° 0 mm 2 m/s 756 mmHg 49%
    12:00 +17°C° 0 mm 2 m/s 756 mmHg 48%
    13:00 +18°C° 0 mm 2 m/s 756 mmHg 48%
    14:00 +19°C° 0 mm 3 m/s 756 mmHg 47%
    15:00 +18°C° 0 mm 2 m/s 756 mmHg 53%
    16:00 +16°C° 0 mm 2 m/s 755 mmHg 59%
    17:00 +15°C° 0 mm 2 m/s 755 mmHg 64%
    18:00 +14°C° 0 mm 2 m/s 755 mmHg 67%
    19:00 +14°C° 0 mm 2 m/s 755 mmHg 70%
    20:00 +13°C° 0 mm 2 m/s 755 mmHg 73%
    21:00 +13°C° 0 mm 2 m/s 755 mmHg 75%
    22:00 +12°C° 0 mm 2 m/s 755 mmHg 77%
    23:00 +12°C° 0 mm 2 m/s 755 mmHg 79%

    Depois de amanhã, 17 Outubro, Quarta-feira

    Tempo Temperatura Precipitação Vento Pressão Humidade
    00:00 +12°C° 0 mm 2 m/s 755 mmHg 80%
    01:00 +12°C° 0 mm 1 m/s 755 mmHg 82%
    02:00 +11°C° 0 mm 1 m/s 755 mmHg 84%
    03:00 +11°C° 0 mm 1 m/s 755 mmHg 85%
    04:00 +11°C° 0 mm 1 m/s 755 mmHg 86%
    05:00 +11°C° 0 mm 1 m/s 755 mmHg 87%
    06:00 +11°C° 0 mm 1 m/s 755 mmHg 85%
    07:00 +12°C° 0 mm 1 m/s 755 mmHg 84%
    08:00 +12°C° 0 mm 1 m/s 756 mmHg 82%
    09:00 +14°C° 0 mm 1 m/s 756 mmHg 74%
    10:00 +16°C° 0 mm 2 m/s 756 mmHg 66%
    11:00 +18°C° 0 mm 2 m/s 756 mmHg 59%
    12:00 +19°C° 0 mm 2 m/s 756 mmHg 56%
    13:00 +20°C° 0 mm 2 m/s 755 mmHg 54%
    14:00 +21°C° 0 mm 2 m/s 755 mmHg 51%
    15:00 +20°C° 0 mm 1 m/s 755 mmHg 57%
    16:00 +19°C° 0 mm 1 m/s 755 mmHg 63%
    17:00 +16°C° 0 mm 1 m/s 755 mmHg 69%
    18:00 +16°C° 0 mm 1 m/s 755 mmHg 72%
    19:00 +15°C° 0 mm 1 m/s 755 mmHg 74%
    20:00 +15°C° 0 mm 1 m/s 755 mmHg 77%
    21:00 +14°C° 0 mm 1 m/s 755 mmHg 79%
    22:00 +14°C° 0 mm 1 m/s 755 mmHg 81%
    23:00 +13°C° 0 mm 1 m/s 755 mmHg 83%

    18 Outubro, Quinta-feira

    Tempo Temperatura Precipitação Vento Pressão Humidade
    00:00 +13°C° 0 mm 1 m/s 755 mmHg 84%
    01:00 +13°C° 0 mm 1 m/s 755 mmHg 85%
    02:00 +13°C° 0 mm 1 m/s 755 mmHg 86%
    03:00 +12°C° 0 mm 1 m/s 755 mmHg 87%
    04:00 +12°C° 0 mm 1 m/s 754 mmHg 88%
    05:00 +12°C° 0 mm 1 m/s 754 mmHg 89%
    06:00 +12°C° 0 mm 1 m/s 754 mmHg 87%
    07:00 +13°C° 0 mm 1 m/s 754 mmHg 85%
    08:00 +13°C° 0 mm 1 m/s 754 mmHg 84%
    09:00 +15°C° 0 mm 1 m/s 754 mmHg 76%
    10:00 +17°C° 0 mm 2 m/s 754 mmHg 69%
    11:00 +19°C° 0 mm 2 m/s 754 mmHg 62%
    12:00 +19°C° 0 mm 2 m/s 754 mmHg 59%
    13:00 +20°C° 0 mm 2 m/s 753 mmHg 56%
    14:00 +21°C° 0 mm 2 m/s 753 mmHg 54%
    15:00 +19°C° 0 mm 2 m/s 753 mmHg 60%
    16:00 +18°C° 0 mm 2 m/s 752 mmHg 65%
    17:00 +18°C° 0 mm 1 m/s 752 mmHg 71%
    18:00 +16°C° 0 mm 2 m/s 752 mmHg 74%
    19:00 +15°C° 0 mm 2 m/s 752 mmHg 77%
    20:00 +14°C° 0 mm 2 m/s 752 mmHg 80%
    21:00 +14°C° 0 mm 2 m/s 752 mmHg 81%
    22:00 +14°C° 0 mm 2 m/s 752 mmHg 83%
    23:00 +13°C° 0 mm 2 m/s 752 mmHg 84%

    19 Outubro, Sexta-feira

    Tempo Temperatura Precipitação Vento Pressão Humidade
    00:00 +13°C° 0 mm 2 m/s 752 mmHg 85%
    01:00 +12°C° 0 mm 1 m/s 752 mmHg 86%
    02:00 +12°C° 0 mm 1 m/s 751 mmHg 87%
    03:00 +12°C° 0 mm 1 m/s 751 mmHg 88%
    04:00 +11°C° 0 mm 1 m/s 751 mmHg 89%
    05:00 +11°C° 0 mm 1 m/s 751 mmHg 90%
    06:00 +11°C° 0 mm 1 m/s 751 mmHg 88%
    07:00 +12°C° 0 mm 1 m/s 751 mmHg 87%
    08:00 +12°C° 0 mm 1 m/s 751 mmHg 86%
    09:00 +14°C° 0 mm 1 m/s 751 mmHg 79%
    10:00 +15°C° 0 mm 1 m/s 751 mmHg 72%
    11:00 +18°C° 0 mm 1 m/s 751 mmHg 65%
    12:00 +19°C° 0 mm 1 m/s 750 mmHg 62%
    13:00 +19°C° 0 mm 1 m/s 750 mmHg 60%
    14:00 +20°C° 0 mm 1 m/s 750 mmHg 57%
    15:00 +19°C° 0 mm 1 m/s 750 mmHg 64%
    16:00 +16°C° 0 mm 1 m/s 750 mmHg 70%
    17:00 +15°C° 0 mm 1 m/s 750 mmHg 76%
    18:00 +14°C° 0 mm 1 m/s 750 mmHg 80%
    19:00 +13°C° 0 mm 1 m/s 750 mmHg 83%
    20:00 +13°C° 0 mm 1 m/s 750 mmHg 87%
    21:00 +12°C° 0 mm 1 m/s 750 mmHg 89%
    22:00 +12°C° 0 mm 1 m/s 750 mmHg 90%
    23:00 +12°C° 0 mm 2 m/s 750 mmHg 92%

    20 Outubro, Sábado

    Tempo Temperatura Precipitação Vento Pressão Humidade
    00:00 +10°C° 0 mm 2 m/s 750 mmHg 93%
    01:00 +10°C° 0 mm 2 m/s 750 mmHg 94%
    02:00 +10°C° 0 mm 2 m/s 750 mmHg 95%
    03:00 +10°C° 0 mm 2 m/s 750 mmHg 95%
    04:00 +10°C° 0 mm 2 m/s 750 mmHg 95%
    05:00 +10°C° 0 mm 2 m/s 750 mmHg 95%
    06:00 +10°C° 0 mm 3 m/s 751 mmHg 93%
    07:00 +10°C° 0 mm 3 m/s 751 mmHg 91%
    08:00 +11°C° 0 mm 3 m/s 751 mmHg 90%
    09:00 +11°C° 0 mm 3 m/s 751 mmHg 87%
    10:00 +11°C° 0 mm 3 m/s 751 mmHg 85%
    11:00 +11°C° 0 mm 3 m/s 751 mmHg 82%
    12:00 +11°C° 0 mm 3 m/s 751 mmHg 81%
    13:00 +12°C° 0 mm 3 m/s 751 mmHg 79%
    14:00 +12°C° 0 mm 3 m/s 751 mmHg 78%
    15:00 +11°C° 0 mm 3 m/s 751 mmHg 78%
    16:00 +11°C° 0 mm 3 m/s 751 mmHg 78%
    17:00 +12°C° 0 mm 2 m/s 751 mmHg 78%
    18:00 +10°C° 0 mm 3 m/s 751 mmHg 77%
    19:00 +10°C° 0 mm 3 m/s 751 mmHg 76%
    20:00 +9°C° 0 mm 3 m/s 752 mmHg 75%
    21:00 +9°C° 0 mm 3 m/s 752 mmHg 75%
    22:00 +8°C° 0 mm 3 m/s 752 mmHg 75%
    23:00 +7°C° 0 mm 2 m/s 752 mmHg 76%
    Mostrar mais